#timestamp,LO_Frequency,Hit 
1499850015.5,286047000.1,N
1499850035.4,286047000.3,N
1499850055.2,286047000.9,N
1499850075.0,286047002.1,N
1499850075.9,286047002.1,N
1499850095.8,286046999.7,N
1499850115.6,286047001.5,N
1499850135.4,286047001.4,N
1499850155.2,286047003.4,N
1499850175.1,286047004.0,N
1499850176.0,286047004.0,N
1499850195.8,286047003.7,N
1499850215.6,286047002.0,N
1499850235.5,286046998.6,N
1499850255.3,286046999.6,N
1499850275.1,286046995.0,N
1499850295.9,286046995.9,N
1499850315.7,286046992.0,N
1499850335.5,286046994.3,N
1499850355.4,286046994.2,N
1499850375.2,286046993.7,N
1499850395.0,286046996.2,N
1499850395.9,286046996.2,N
1499850415.8,286046993.7,N
1499850435.6,286046995.9,N
1499850455.4,286046995.9,N
1499850475.3,286046997.2,N
1499850495.1,286046997.5,N
1499850496.0,286046997.5,N
1499850515.8,286046993.6,N
1499850535.7,286046996.2,N
1499850555.5,286046995.4,N
1499850575.3,286046997.7,N
1499850595.2,286046997.8,N
1499850615.9,286046999.5,N
1499850635.7,286046994.2,N
1499850655.6,286046991.9,N
1499850675.4,286046990.9,N
1499850695.2,286046987.8,N
1499850715.0,286046987.7,N
1499850716.0,286046987.7,N
1499850735.8,286046987.6,N
1499850755.6,286046988.2,N
1499850775.4,286046988.2,N
1499850795.3,286046986.0,N
1499850815.1,286046984.8,N
1499850835.8,286046985.9,N
1499850855.7,286046985.6,N
1499850875.5,286046984.0,N
1499850895.3,286046984.8,N
1499850915.2,286046984.4,N
1499850935.9,286046985.6,N
1499850955.7,286046988.3,N
1499850975.6,286046988.9,N
1499850995.4,286046992.8,N
1499851015.2,286046992.3,N
1499851035.1,286046992.5,N
1499851036.0,286046992.5,N
1499851055.8,286046992.3,N
1499851075.6,286046990.8,N
1499851095.5,286046992.5,N
1499851115.3,286046994.2,N
1499851135.1,286046996.0,N
1499851155.9,286046997.8,N
1499851175.7,286046998.8,N
1499851195.5,286046998.1,N
1499851215.3,286047001.2,N
1499851235.2,286047001.2,N
1499851255.9,286046998.2,N
1499851275.7,286047000.8,N
1499851295.6,286046998.2,N
1499851315.4,286046998.6,N
1499851335.2,286047000.2,N
1499851355.1,286047000.5,N
1499851356.0,286047000.5,N
1499851375.8,286047001.2,N
1499851395.6,286047001.0,N
1499851415.5,286047000.6,N
1499851435.3,286047001.1,N
1499851455.1,286047002.6,N
1499851475.8,286047002.8,N
1499851495.7,286047002.5,N
1499851515.5,286047005.5,N
1499851535.3,286047002.5,N
1499851555.2,286047002.8,N
1499851575.0,286047004.4,N
1499851575.9,286047004.4,N
1499851595.7,286047001.8,N
1499851615.6,286047001.8,N
1499851635.4,286047001.9,N
1499851655.2,286047002.4,N
1499851675.1,286046999.7,N
1499851676.0,286046999.7,N
1499851695.8,286047000.2,N
1499851715.6,286047000.4,N
1499851735.5,286046999.7,N
1499851755.3,286047002.7,N
1499851775.1,286047002.4,N
1499851795.9,286047002.1,N
1499851815.7,286046999.8,N
1499851835.5,286046999.9,N
1499851855.3,286047002.8,N
1499851875.2,286047004.2,N
1499851895.0,286047002.2,N
1499851895.9,286047002.2,N
1499851915.7,286047002.5,N
1499851935.6,286047002.1,N
1499851955.4,286047001.8,N
1499851975.2,286047001.6,N
1499851995.1,286047002.4,N
1499851996.0,286047002.4,N
1499852015.8,286047000.9,N
1499852035.6,286047001.2,N
1499852055.5,286047000.7,N
1499852075.3,286047000.9,N
1499852095.1,286047001.1,N
1499852115.9,286046998.4,N
1499852135.7,286046998.5,N
1499852155.5,286047001.1,N
1499852175.4,286046999.9,N
1499852195.2,286046999.9,N
1499852215.0,286047000.4,N
1499852215.9,286047000.4,N
1499852235.8,286047002.8,N
1499852255.6,286047001.4,N
1499852275.4,286047003.9,N
1499852295.3,286047003.3,N
1499852315.1,286047005.0,N
1499852316.0,286047005.0,N
1499852335.8,286047006.6,N
1499852355.6,286047006.2,N
1499852375.5,286047007.2,N
1499852395.3,286047007.4,N
1499852415.1,286047006.1,N
1499852435.9,286047006.3,N
1499852455.7,286047007.0,N
1499852475.5,286047007.5,N
1499852495.4,286047004.5,N
1499852515.2,286047003.0,N
1499852535.0,286047003.1,N
1499852535.9,286047003.1,N
1499852555.8,286047004.9,N
1499852575.6,286047003.4,N
1499852595.4,286047001.8,N
1499852615.3,286047004.1,N
1499852635.1,286047003.0,N
1499852636.0,286047003.0,N
1499852655.8,286047006.7,N
1499852675.6,286047003.7,N
1499852695.5,286046998.5,N
1499852715.3,286046997.0,N
1499852735.1,286046997.3,N
1499852755.9,286046997.4,N
1499852775.7,286046995.3,N
1499852795.5,286046995.1,N
1499852815.4,286046997.0,N
1499852835.2,286046997.7,N
1499852855.0,286046997.4,N
1499852855.9,286046997.4,N
1499852875.8,286046996.7,N
1499852895.6,286046997.1,N
1499852915.4,286046998.8,N
1499852935.3,286047000.8,N
1499852955.1,286046998.7,N
1499852956.0,286046998.7,N
1499852975.8,286046996.6,N
1499852995.7,286047000.5,N
1499853015.5,286047000.1,N
1499853035.3,286046999.5,N
1499853055.2,286046999.6,N
1499853075.9,286046996.7,N
1499853095.7,286046999.1,N
1499853115.5,286046998.1,N
1499853135.4,286047000.6,N
1499853155.2,286047002.3,N
1499853175.0,286047001.5,N
1499853175.9,286047001.5,N
1499853195.8,286047001.5,N
1499853215.6,286047002.5,N
1499853235.4,286047001.4,N
1499853255.3,286047004.1,N
1499853275.1,286047003.7,N
1499853276.0,286047003.7,N
1499853295.8,286047004.0,N
1499853315.7,286047005.9,N
1499853335.5,286047005.9,N
1499853355.3,286047005.4,N
1499853375.2,286047003.3,N
1499853395.9,286047003.4,N
1499853415.7,286047003.4,N
1499853435.6,286047005.8,N
1499853455.4,286047005.1,N
1499853475.2,286047005.3,N
1499853495.0,286047003.6,N
1499853496.0,286047003.6,N
1499853515.8,286047003.3,N
1499853535.6,286047003.3,N
1499853555.4,286047004.0,N
1499853575.3,286047005.7,N
1499853595.1,286047005.5,N
